| time (UTC) | temp C | wind direction | speed KPH | gust KPH | rain 1hr cm | rain 24hr cm | rain mn cm | humidity % | barometer mb |
| 20260508143107 | 8 | 291 | 9.7 | 16.1 | 0.00 | 2.24 | 0.00 | 96 | 1002.2 |
| 20260508141555 | 8 | 285 | 9.7 | 16.1 | 0.00 | 2.24 | 0.00 | 96 | 1002.3 |
| 20260508140104 | 8 | 350 | 9.7 | 17.7 | 0.00 | 2.24 | 0.00 | 97 | 1002.5 |
| 20260508134605 | 8 | 304 | 9.7 | 16.1 | 0.00 | 2.24 | 0.00 | 98 | 1002.4 |
| 20260508133055 | 8 | 278 | 9.7 | 16.1 | 0.00 | 2.24 | 0.00 | 99 | 1002.3 |
| 20260508131555 | 8 | 337 | 6.4 | 12.9 | 0.00 | 2.24 | 0.00 | 99 | 1002.3 |
| 20260508130057 | 8 | 325 | 6.4 | 12.9 | 0.00 | 2.24 | 0.00 | 99 | 1002.3 |
| 20260508124554 | 7 | 337 | 4.8 | 8.0 | 0.00 | 2.24 | 0.00 | 99 | 1002.4 |
| 20260508123055 | 7 | 332 | 4.8 | 12.9 | 0.00 | 2.24 | 0.00 | 99 | 1002.4 |
| 20260508121558 | 7 | 350 | 9.7 | 14.5 | 0.00 | 2.24 | 0.00 | 99 | 1002.4 |
| 20260508120055 | 7 | 337 | 6.4 | 9.7 | 0.00 | 2.24 | 0.00 | 99 | 1002.3 |
| 20260508114608 | 7 | 337 | 3.2 | 4.8 | 0.00 | 2.24 | 0.00 | 99 | 1002.4 |
| 20260508113105 | 7 | 337 | 3.2 | 6.4 | 0.00 | 2.24 | 0.00 | 99 | 1002.6 |
| 20260508111612 | 7 | 337 | 4.8 | 8.0 | 0.00 | 2.24 | 0.00 | 99 | 1002.4 |
| 20260508110205 | 6 | 327 | 4.8 | 8.0 | 0.00 | 2.24 | 0.00 | 99 | 1002.5 |
| 20260508104600 | 6 | 2 | 4.8 | 6.4 | 0.00 | 2.24 | 0.00 | 99 | 1002.3 |
| 20260508103055 | 6 | 15 | 1.6 | 4.8 | 0.00 | 2.24 | 0.00 | 99 | 1002.3 |
| 20260508101556 | 6 | 0 | 1.6 | 4.8 | 0.00 | 2.24 | 0.00 | 99 | 1002.5 |
| 20260508100101 | 6 | 0 | 0.0 | 3.2 | 0.00 | 2.24 | 0.00 | 99 | 1002.5 |
| 20260508094600 | 6 | 0 | 0.0 | 3.2 | 0.00 | 2.24 | 0.00 | 99 | 1002.3 |
| 20260508093104 | 6 | 0 | 0.0 | 0.0 | 0.00 | 2.24 | 0.00 | 99 | 1002.2 |
| 20260508091608 | 6 | 27 | 1.6 | 3.2 | 0.00 | 2.24 | 0.00 | 99 | 1002.2 |
| 20260508090105 | 6 | 27 | 0.0 | 6.4 | 0.00 | 2.24 | 0.00 | 99 | 1001.9 |
| 20260508084555 | 6 | 28 | 1.6 | 4.8 | 0.00 | 2.24 | 0.00 | 99 | 1001.9 |
| 20260508083107 | 6 | 350 | 1.6 | 6.4 | 0.00 | 2.24 | 0.00 | 98 | 1002.1 |
| 20260508081601 | 6 | 357 | 4.8 | 12.9 | 0.00 | 2.24 | 0.00 | 98 | 1002.1 |
| 20260508080105 | 7 | 337 | 4.8 | 12.9 | 0.00 | 2.24 | 0.00 | 98 | 1001.8 |
| 20260508074607 | 7 | 327 | 4.8 | 12.9 | 0.00 | 2.24 | 0.00 | 99 | 1001.6 |
| 20260508073103 | 7 | 321 | 8.0 | 14.5 | 0.00 | 2.24 | 0.00 | 98 | 1001.6 |
| 20260508071557 | 7 | 307 | 4.8 | 12.9 | 0.00 | 2.24 | 0.00 | 98 | 1001.7 |
| 20260508070100 | 7 | 323 | 8.0 | 16.1 | 0.00 | 2.24 | 0.00 | 98 | 1001.9 |
| 20260508064555 | 7 | 331 | 3.2 | 16.1 | 0.00 | 2.24 | 0.00 | 98 | 1001.8 |
| 20260508063102 | 7 | 309 | 6.4 | 14.5 | 0.00 | 2.24 | 0.00 | 98 | 1001.8 |
| 20260508061604 | 7 | 287 | 6.4 | 11.3 | 0.00 | 2.24 | 0.00 | 98 | 1001.7 |
| 20260508060056 | 7 | 292 | 4.8 | 11.3 | 0.00 | 2.24 | 0.00 | 98 | 1001.8 |
| 20260508054555 | 7 | 276 | 4.8 | 11.3 | 0.00 | 2.24 | 0.00 | 98 | 1001.9 |
| 20260508053104 | 8 | 305 | 4.8 | 12.9 | 0.00 | 2.24 | 0.00 | 98 | 1001.9 |
| 20260508051605 | 8 | 281 | 3.2 | 8.0 | 0.00 | 2.24 | 0.00 | 98 | 1002.0 |
| 20260508050057 | 8 | 0 | 0.0 | 0.0 | 0.00 | 2.24 | 0.00 | 98 | 1001.9 |
| 20260508044608 | 8 | 0 | 0.0 | 3.2 | 0.00 | 2.24 | 0.00 | 98 | 1001.5 |
| 20260508043055 | 8 | 281 | 0.0 | 3.2 | 0.00 | 2.24 | 0.00 | 98 | 1001.6 |
| 20260508041610 | 8 | 0 | 1.6 | 4.8 | 0.00 | 2.24 | 0.00 | 98 | 1001.8 |
| 20260508040056 | 8 | 281 | 3.2 | 6.4 | 0.00 | 2.24 | 0.00 | 98 | 1002.1 |
| 20260508034600 | 8 | 281 | 4.8 | 8.0 | 0.00 | 2.24 | 0.00 | 98 | 1002.2 |
| 20260508033104 | 8 | 283 | 4.8 | 8.0 | 0.00 | 2.24 | 0.00 | 98 | 1002.3 |
| 20260508031603 | 8 | 296 | 4.8 | 9.7 | 0.00 | 2.24 | 0.00 | 97 | 1002.4 |
| 20260508030105 | 9 | 305 | 4.8 | 8.0 | 0.00 | 2.24 | 0.00 | 97 | 1002.2 |
| 20260508024603 | 9 | 282 | 3.2 | 6.4 | 0.00 | 2.24 | 2.24 | 97 | 1002.3 |
| 20260508023100 | 9 | 282 | 3.2 | 6.4 | 0.00 | 2.24 | 2.24 | 97 | 1002.6 |
| 20260508020059 | 9 | 282 | 1.6 | 6.4 | 0.00 | 2.24 | 2.24 | 97 | 1002.4 |
| 20260508014559 | 9 | 0 | 0.0 | 8.0 | 0.00 | 2.24 | 2.24 | 97 | 1002.2 |
| 20260508013057 | 9 | 282 | 6.4 | 12.9 | 0.00 | 2.24 | 2.24 | 97 | 1002.5 |
| 20260508011609 | 10 | 277 | 4.8 | 8.0 | 0.00 | 2.24 | 2.24 | 96 | 1002.8 |
| 20260508010103 | 10 | 296 | 6.4 | 11.3 | 0.00 | 2.24 | 2.24 | 96 | 1002.4 |
| 20260508004600 | 10 | 317 | 6.4 | 14.5 | 0.00 | 2.24 | 2.24 | 95 | 1002.1 |
| 20260508003056 | 11 | 305 | 11.3 | 17.7 | 0.00 | 2.24 | 2.24 | 95 | 1002.1 |
| 20260508001601 | 12 | 0 | 0.0 | 0.0 | 0.00 | 2.24 | 2.24 | 95 | 1002.0 |
| 20260508000100 | 12 | 0 | 0.0 | 4.8 | 0.00 | 2.24 | 2.24 | 95 | 1001.9 |
| 20260507234559 | 12 | 196 | 0.0 | 3.2 | 0.00 | 2.24 | 2.24 | 95 | 1001.7 |
| 20260507233054 | 12 | 0 | 0.0 | 3.2 | 0.00 | 2.24 | 2.24 | 95 | 1001.7 |
| 20260507231559 | 12 | 0 | 0.0 | 0.0 | 0.00 | 2.24 | 2.24 | 94 | 1001.9 |
| 20260507230057 | 12 | 0 | 1.6 | 4.8 | 0.00 | 2.24 | 2.24 | 94 | 1001.9 |
| 20260507224601 | 12 | 0 | 0.0 | 8.0 | 0.00 | 2.24 | 2.24 | 94 | 1002.3 |
| 20260507223057 | 12 | 194 | 6.4 | 17.7 | 0.00 | 2.24 | 2.24 | 94 | 1002.0 |
| 20260507221556 | 12 | 209 | 4.8 | 12.9 | 0.00 | 2.24 | 2.24 | 94 | 1002.1 |
| 20260507220054 | 12 | 173 | 11.3 | 19.3 | 0.00 | 2.24 | 2.24 | 94 | 1001.9 |
| 20260507214555 | 12 | 154 | 8.0 | 16.1 | 0.00 | 2.24 | 2.24 | 95 | 1001.7 |
| 20260507213054 | 12 | 145 | 8.0 | 17.7 | 0.00 | 2.24 | 2.24 | 95 | 1001.4 |
| 20260507211554 | 12 | 133 | 9.7 | 19.3 | 0.00 | 2.24 | 2.24 | 95 | 1001.7 |
| 20260507210056 | 12 | 145 | 12.9 | 22.5 | 0.00 | 2.24 | 2.24 | 95 | 1001.8 |
| 20260507204555 | 12 | 175 | 9.7 | 19.3 | 0.05 | 2.24 | 2.24 | 96 | 1002.0 |
| 20260507203054 | 12 | 169 | 4.8 | 20.9 | 0.08 | 2.24 | 2.24 | 96 | 1001.8 |
| 20260507201606 | 12 | 169 | 11.3 | 22.5 | 0.08 | 2.24 | 2.24 | 96 | 1001.0 |
| 20260507200057 | 11 | 182 | 14.5 | 29.0 | 0.15 | 2.21 | 2.21 | 96 | 1000.9 |
| 20260507194554 | 11 | 114 | 16.1 | 24.1 | 0.28 | 2.16 | 2.16 | 96 | 1000.9 |
| 20260507193056 | 12 | 135 | 12.9 | 20.9 | 0.56 | 2.16 | 2.16 | 96 | 1002.3 |
| 20260507191558 | 11 | 121 | 9.7 | 16.1 | 0.71 | 2.13 | 2.13 | 96 | 1002.2 |
| 20260507190059 | 12 | 136 | 6.4 | 16.1 | 0.79 | 2.06 | 2.06 | 95 | 1002.8 |
| 20260507184559 | 12 | 165 | 11.3 | 24.1 | 0.89 | 1.88 | 1.88 | 95 | 1003.2 |
| 20260507183055 | 12 | 139 | 11.3 | 22.5 | 0.84 | 1.57 | 1.57 | 94 | 1003.9 |
| 20260507181556 | 12 | 178 | 12.9 | 25.7 | 1.04 | 1.40 | 1.40 | 94 | 1003.9 |
| 20260507180057 | 12 | 177 | 16.1 | 27.4 | 1.22 | 1.24 | 1.24 | 94 | 1004.0 |
| 20260507174605 | 12 | 181 | 12.9 | 30.6 | 0.97 | 0.99 | 0.99 | 94 | 1004.3 |
| 20260507173101 | 12 | 183 | 11.3 | 22.5 | 0.74 | 0.74 | 0.74 | 94 | 1005.0 |
| 20260507171604 | 12 | 193 | 16.1 | 38.6 | 0.36 | 0.36 | 0.36 | 93 | 1004.9 |
| 20260507170055 | 13 | 179 | 11.3 | 40.2 | 0.03 | 0.03 | 0.03 | 93 | 1004.2 |
| 20260507164556 | 14 | 154 | 17.7 | 46.7 | 0.00 | 0.00 | 0.00 | 93 | 1003.9 |
| 20260507163122 | 14 | 176 | 17.7 | 48.3 | 0.00 | 0.00 | 0.00 | 92 | 1004.0 |
| 20260507161557 | 14 | 138 | 14.5 | 38.6 | 0.00 | 0.00 | 0.00 | 91 | 1004.3 |
| 20260507160056 | 15 | 146 | 20.9 | 37.0 | 0.00 | 0.00 | 0.00 | 88 | 1004.7 |
| 20260507154557 | 15 | 173 | 24.1 | 54.7 | 0.00 | 0.00 | 0.00 | 87 | 1005.2 |
| 20260507153056 | 15 | 164 | 25.7 | 49.9 | 0.00 | 0.00 | 0.00 | 87 | 1005.5 |
| 20260507151555 | 14 | 152 | 22.5 | 41.8 | 0.00 | 0.00 | 0.00 | 88 | 1005.9 |
| 20260507150101 | 14 | 175 | 25.7 | 56.3 | 0.00 | 0.00 | 0.00 | 88 | 1006.5 |
| 20260507144617 | 15 | 157 | 19.3 | 46.7 | 0.00 | 0.00 | 0.00 | 88 | 1006.9 |